Regional Weather Roundup
Issued by NWS Portland, ME

Current Version | Previous Version | Text Only | Print | Product List | Glossary Off
Versions: 1 2 3 4 5 6 7 8 9 10 11 12 13 14 15 16 17 18 19 20 21 22 23 24 25 26 27 28 29 30 31 32 33 34 35 36 37 38 39 40 41 42 43 44 45 46 47 48 49 50
000 ASUS41 KGYX 192010 RWRGYX WEATHER ROUNDUP FOR MAINE AND NEW HAMPSHIRE NATIONAL WEATHER SERVICE GRAY ME 400 PM EDT FRI OCT 19 2018 MEZ002-005-006-010-012-015-018-020-021-024-026-027-029-192100- MAINE CITY SKY/WX TMP DP RH WIND PRES REMARKS PORTLAND FAIR 56 40 55 S5 29.95F SANFORD FAIR 57 37 47 SW14 29.95F BAR HARBOR FAIR 49 39 68 S18G25 29.97F WISCASSET FAIR 51 39 63 SW10 29.97F ROCKLAND FAIR 50 38 63 SW13G23 29.97F FRYEBURG FAIR 57 36 45 VRB7 29.91F LEWISTONAUBURN FAIR 55 35 47 SW10 29.93F AUGUSTA FAIR 52 36 54 S12 29.93F WATERVILLE FAIR 53 34 48 S9 29.89F BANGOR FAIR 52 36 54 S16 29.92F GREENVILLE N/A 48 31 51 S10G17 29.84F MILLINOCKET FAIR 50 31 48 SW8 29.90F HOULTON CLOUDY 41 28 60 S5 29.90F PRESQUE ISLE CLOUDY 37 26 64 SE9 29.89F FRENCHVILLE CLOUDY 35 24 64 S9 29.84F CARIBOU CLOUDY 36 25 64 S9 29.87F $$ NHZ002-005-008-009-011-012-014-192100- NEW HAMPSHIRE CITY SKY/WX TMP DP RH WIND PRES REMARKS PORTSMOUTH MOSUNNY 59 35 41 SW10G17 29.95F ROCHESTER FAIR 58 38 47 VRB6 29.94F NASHUA FAIR 60 37 42 SW8G14 29.97F MANCHESTER FAIR 61 35 37 SW12 29.94F CONCORD FAIR 60 38 43 SW9 29.94F LACONIA FAIR 60 38 43 SW7 29.93F PLYMOUTH FAIR 61 35 36 CALM 29.91F BERLIN FAIR 58 35 42 VRB7 29.88F WHITEFIELD FAIR 58 36 43 W7 29.89F JAFFREY FAIR 57 37 47 SW8 29.98F KEENE FAIR 60 37 42 S14 29.96F LEBANON FAIR 63 37 38 SW10 29.92F MT WASHINGTON MOSUNNY 34 25 69 W53G60 N/A WCI 17 $$ VTZ005-007-008-192100- VERMONT CITY SKY/WX TMP DP RH WIND PRES REMARKS ST JOHNSBURY N/A 57 37 47 MISG 29.86F MONTPELIER FAIR 59 38 45 SW5 29.92S BURLINGTON FAIR 60 38 43 S16G23 29.86F $$ MAZ007-012-024-CTZ003-RIZ002-NYZ038-NYZ072-192100- SOUTHERN NEW ENGLAND AND NY CITY SKY/WX TMP DP RH WIND PRES REMARKS BOSTON FAIR 62 32 32 SW18 30.00F WORCESTER FAIR 57 33 40 SW18G26 30.00F NANTUCKET FAIR 58 43 57 SW24G32 30.08F PROVIDENCE FAIR 60 42 51 SW15 30.05F HARTFORD PTSUNNY 61 37 41 S13 30.02F ALBANY FAIR 60 36 40 S15 29.98F NEW YORK CITY PTSUNNY 62 28 27 SW13G20 30.08F $$ ANZ081-ANZ082-ANZ150-NHZ014-MEZ023>029-192100- COASTAL MARINE OBSERVATIONS STATION/POSITION TIME TEMP WIND PRES WAVE AIR SEA DIR/SP/G HT/PER (UTC) (F) (DEG/KT/KT) (MB) (FT/S) MOUNT DESERT ROC 2000 49 190/ 23/ 26 1015.5F MATINICUS ROCK 1900 49 210/ 21/ 23 1015.5F ISLE OF SHOALS 1900 54 230/ 17/ 19 1015.1F JEFFREYS LEDGE 1906 55 N/A 4/ 5 $$ .............KEY.............. WCI - WIND CHILL TC - TEMPERATURE IN CELSIUS VSB - VISIBILITY IN MILES HX - HEAT INDEX FAIR- INDICATES FEW OR NO CLOUDS BELOW 12,000 FT, WITH NO SIGNIFICANT WEATHER AND/OR OBSTRUCTIONS TO VISIBILITY.

USA.gov is the U.S. government's official web portal to all federal, state and local government web resources and services.